Regional Weather Roundup
Issued by NWS

Home | Current Version | Previous Version | Graphics & Text | Print | Product List | Glossary Off
Versions: 1 2 3 4 5 6 7 8 9 10 11 12 13 14 15 16 17 18 19 20 21 22 23 24 25 26 27 28 29 30 31 32 33 34 35 36 37 38 39 40 41 42 43 44 45 46 47 48 49 50

000
ASUS43 KTOP 010508
RWRKS

WEATHER ROUNDUP FOR KANSAS
NATIONAL WEATHER SERVICE GOODLAND KS
1200 AM CDT WED APR 01 2015

NOTE:  "FAIR" INDICATES FEW OR NO CLOUDS BELOW 12,000 FEET WITH NO
SIGNIFICANT WEATHER AND/OR OBSTRUCTIONS TO VISIBILITY.

KSZ001>006-013>018-027>032-041>047-010600-
NORTHWEST KANSAS

CITY           SKY/WX    TMP DP  RH WIND       PRES   REMARKS
GOODLAND       CLEAR     57  29  34 S16       29.83F
HAYS           CLEAR     55  30  38 SE9       29.85S
HILL CITY      CLEAR     64  31  28 S13       29.82F
RUSSELL        CLEAR     59  33  37 SE14      29.83F
$$

KSZ061>065-074>080-084>089-010600-
SOUTHWEST KANSAS

CITY           SKY/WX    TMP DP  RH WIND       PRES   REMARKS
DODGE CITY     CLEAR     55  34  45 SE9       29.86F
ELKHART          N/A     55  43  64 SE12        N/A
GARDEN CITY    CLEAR     56  36  47 SE10      29.84F
GREAT BEND     CLEAR     61  36  39 S14       29.85F
LIBERAL        CLEAR     63  43  48 SE13      29.88S
PRATT          PTCLDY    59  36  41 E7        29.87F
$$

KSZ066>073-081>083-090>101-010600-
SOUTHEAST KANSAS

CITY           SKY/WX    TMP DP  RH WIND       PRES   REMARKS
CHANUTE        CLEAR     58  39  49 E7        29.92F
COFFEYVILLE    CLEAR     55  50  83 CALM      29.90F
HUTCHINSON     CLEAR     60  37  42 SE10      29.86F
MEDICINE LODGE   N/A     63  42  46 E8        29.84F
NEWTON         CLEAR     57  36  44 SE10      29.90F
PARSONS        CLEAR     52  45  77 CALM      29.92F
WICHITA INTL   MOCLDY    65  43  44 SE10      29.87F
WICHITA JABRA  CLEAR     59  42  53 SE6       29.88F
WICHITA MCCONL PTCLDY    62  44  50 E8        29.87F
WINFIELD       MOCLDY    64  47  53 E10       29.88F
$$

KSZ007>012-019>026-033>040-048>060-102>105-010600-
NORTHEAST KANSAS

CITY           SKY/WX    TMP DP  RH WIND       PRES   REMARKS
CONCORDIA      CLEAR     62  33  33 SE17      29.85F
EMPORIA        CLEAR     54  36  50 SE9       29.90F
LAWRENCE       CLEAR     47  36  65 CALM      29.93S
MANHATTAN      CLEAR     58  35  42 CALM      29.88F
MARYSVILLE     CLEAR     55  34  44 SE9       29.87F
OLATHE IND     CLEAR     58  32  37 SE5       29.95S
OLATHE EXE     CLEAR     61  31  32 E6        29.93F
SALINA         CLEAR     60  35  39 SE10      29.86F
TOPEKA BILLARD CLEAR     52  38  58 NE5       29.92S
TOPEKA FORBES  CLEAR     53  35  50 E6        29.91F
$$


USA.gov is the U.S. government's official web portal to all federal, state and local government web resources and services.